Time,TemperatureF,DewpointF,PressureIn,WindDirection,WindDirectionDegrees,WindSpeedMPH,WindSpeedGustMPH,Humidity,HourlyPrecipIn,Conditions,Clouds,dailyrainin,SoftwareType,DateUTC
2013-12-22 00:06:00,14.6,12.5,30.00,NNW,342,0.0,0.0,91,0.00,,---,0.00,VWS V15.00,2013-12-22 06:06:00,
2013-12-22 00:11:00,14.7,12.6,30.00,NNW,342,0.0,0.0,91,0.00,,---,0.00,VWS V15.00,2013-12-22 06:11:00,
2013-12-22 00:16:00,14.8,12.6,30.00,NNW,342,0.0,0.0,91,0.00,,---,0.00,VWS V15.00,2013-12-22 06:16:00,
2013-12-22 00:26:00,14.9,12.8,29.99,NNW,342,0.0,0.0,91,0.00,,---,0.00,VWS V15.00,2013-12-22 06:26:00,
2013-12-22 00:31:00,15.0,12.9,29.99,NNW,342,0.0,0.0,91,0.00,,---,0.00,VWS V15.00,2013-12-22 06:31:00,
2013-12-22 00:36:00,15.0,12.9,29.99,NNW,342,0.0,0.0,91,0.00,,---,0.00,VWS V15.00,2013-12-22 06:36:00,
2013-12-22 00:41:00,15.1,12.9,30.00,NNW,342,0.0,0.0,91,0.00,,---,0.00,VWS V15.00,2013-12-22 06:41:00,
2013-12-22 00:46:00,15.1,12.9,30.00,NNW,342,0.0,0.0,91,0.00,,---,0.00,VWS V15.00,2013-12-22 06:46:00,
2013-12-22 00:51:00,15.1,12.9,30.00,NNW,342,0.0,0.0,91,0.00,,---,0.00,VWS V15.00,2013-12-22 06:51:00,
2013-12-22 01:01:00,15.2,13.1,29.99,NNW,342,0.0,0.0,91,0.00,,---,0.00,VWS V15.00,2013-12-22 07:01:00,
2013-12-22 01:11:00,15.4,13.2,29.99,NNW,342,0.0,0.0,91,0.00,,---,0.00,VWS V15.00,2013-12-22 07:11:00,
2013-12-22 01:21:00,15.4,13.2,29.99,NNW,342,0.0,0.0,91,0.00,,---,0.00,VWS V15.00,2013-12-22 07:21:00,
2013-12-22 01:26:00,15.4,13.2,29.99,NNW,342,0.0,0.0,91,0.00,,---,0.00,VWS V15.00,2013-12-22 07:26:00,
2013-12-22 01:31:00,15.5,13.4,29.98,NNW,342,0.0,0.0,91,0.00,,---,0.00,VWS V15.00,2013-12-22 07:31:00,
2013-12-22 01:41:00,15.8,13.6,29.98,NNW,342,0.0,0.0,91,0.00,,---,0.00,VWS V15.00,2013-12-22 07:41:00,
2013-12-22 01:51:00,16.1,13.9,29.99,NNW,342,0.0,0.0,91,0.00,,---,0.00,VWS V15.00,2013-12-22 07:51:00,
2013-12-22 02:01:00,16.3,14.1,29.99,NNW,342,0.0,0.0,91,0.00,,---,0.00,VWS V15.00,2013-12-22 08:01:00,
2013-12-22 02:06:00,16.3,14.1,30.00,NNW,342,0.0,0.0,91,0.00,,---,0.00,VWS V15.00,2013-12-22 08:06:00,
2013-12-22 02:11:00,16.2,14.0,30.00,NNW,342,0.0,0.0,91,0.00,,---,0.00,VWS V15.00,2013-12-22 08:11:00,
2013-12-22 02:21:00,16.1,13.9,30.00,NNW,342,0.0,0.0,91,0.00,,---,0.00,VWS V15.00,2013-12-22 08:21:00,
2013-12-22 02:26:00,16.1,13.9,30.00,NNW,342,0.0,0.0,91,0.00,,---,0.00,VWS V15.00,2013-12-22 08:26:00,
2013-12-22 02:31:00,16.1,13.9,30.00,NNW,342,0.0,0.0,91,0.00,,---,0.00,VWS V15.00,2013-12-22 08:31:00,
2013-12-22 02:36:00,16.1,14.2,30.00,NNW,342,0.0,0.0,92,0.00,,---,0.00,VWS V15.00,2013-12-22 08:36:00,
2013-12-22 02:46:00,16.2,14.3,30.00,NNW,342,0.0,1.0,92,0.00,,---,0.00,VWS V15.00,2013-12-22 08:46:00,
2013-12-22 02:51:00,16.2,14.3,30.00,NNW,342,0.0,0.0,92,0.00,,---,0.00,VWS V15.00,2013-12-22 08:51:00,
2013-12-22 02:56:00,16.2,14.0,30.00,NNW,342,0.0,0.0,91,0.00,,---,0.00,VWS V15.00,2013-12-22 08:56:00,
2013-12-22 03:01:00,16.3,14.1,30.00,NNW,342,0.0,0.0,91,0.00,,---,0.00,VWS V15.00,2013-12-22 09:01:00,
2013-12-22 03:06:00,16.3,14.1,30.00,NNW,342,0.0,0.0,91,0.00,,---,0.00,VWS V15.00,2013-12-22 09:06:00,
2013-12-22 03:11:00,16.3,14.1,30.00,NNW,342,0.0,0.0,91,0.00,,---,0.00,VWS V15.00,2013-12-22 09:11:00,
2013-12-22 03:16:00,16.3,14.4,30.00,NNW,342,0.0,0.0,92,0.00,,---,0.00,VWS V15.00,2013-12-22 09:16:00,
2013-12-22 03:21:00,16.3,14.4,30.00,NNW,342,0.0,0.0,92,0.00,,---,0.00,VWS V15.00,2013-12-22 09:21:00,
2013-12-22 03:26:00,16.4,14.5,30.00,NNW,342,0.0,0.0,92,0.00,,---,0.00,VWS V15.00,2013-12-22 09:26:00,
2013-12-22 03:31:00,16.6,14.7,30.00,NNW,342,0.0,0.0,92,0.00,,---,0.00,VWS V15.00,2013-12-22 09:31:00,
2013-12-22 03:36:00,16.7,14.8,30.00,NNW,342,0.0,0.0,92,0.00,,---,0.00,VWS V15.00,2013-12-22 09:36:00,
2013-12-22 03:41:00,16.8,14.9,30.00,NNW,342,0.0,0.0,92,0.00,,---,0.00,VWS V15.00,2013-12-22 09:41:00,
2013-12-22 03:46:00,16.9,15.0,30.00,NNW,342,0.0,0.0,92,0.00,,---,0.00,VWS V15.00,2013-12-22 09:46:00,
2013-12-22 03:51:00,17.1,15.2,30.00,NNW,342,0.0,0.0,92,0.00,,---,0.00,VWS V15.00,2013-12-22 09:51:00,
2013-12-22 03:56:00,17.1,15.2,30.00,NNW,342,0.0,0.0,92,0.00,,---,0.00,VWS V15.00,2013-12-22 09:56:00,
2013-12-22 04:01:00,17.1,15.2,30.00,NNW,342,0.0,0.0,92,0.00,,---,0.00,VWS V15.00,2013-12-22 10:01:00,
2013-12-22 04:06:00,17.2,15.3,30.00,NNW,342,0.0,0.0,92,0.00,,---,0.00,VWS V15.00,2013-12-22 10:06:00,
2013-12-22 04:11:00,17.2,15.3,30.00,NNW,342,0.0,0.0,92,0.00,,---,0.00,VWS V15.00,2013-12-22 10:11:00,
2013-12-22 04:16:00,17.3,15.4,30.00,NNW,342,0.0,0.0,92,0.00,,---,0.00,VWS V15.00,2013-12-22 10:16:00,
2013-12-22 04:21:00,17.3,15.4,30.00,NNW,342,0.0,0.0,92,0.00,,---,0.00,VWS V15.00,2013-12-22 10:21:00,
2013-12-22 04:26:00,17.3,15.4,30.00,NNW,342,0.0,0.0,92,0.00,,---,0.00,VWS V15.00,2013-12-22 10:26:00,
2013-12-22 04:31:00,17.4,15.5,30.00,NNW,342,0.0,0.0,92,0.00,,---,0.00,VWS V15.00,2013-12-22 10:31:00,
2013-12-22 04:41:00,17.5,15.6,30.00,NNW,342,0.0,0.0,92,0.00,,---,0.00,VWS V15.00,2013-12-22 10:41:00,
2013-12-22 04:46:00,17.5,15.6,30.00,NNW,342,0.0,0.0,92,0.00,,---,0.00,VWS V15.00,2013-12-22 10:46:00,
2013-12-22 04:51:00,17.5,15.6,30.00,NNW,342,0.0,0.0,92,0.00,,---,0.00,VWS V15.00,2013-12-22 10:51:00,
2013-12-22 04:56:00,17.3,15.4,30.00,NNW,342,0.0,0.0,92,0.00,,---,0.00,VWS V15.00,2013-12-22 10:56:00,
2013-12-22 05:01:00,17.3,15.4,30.00,NNW,342,0.0,0.0,92,0.00,,---,0.00,VWS V15.00,2013-12-22 11:01:00,
2013-12-22 05:06:00,17.3,15.4,30.00,NNW,342,0.0,0.0,92,0.00,,---,0.00,VWS V15.00,2013-12-22 11:06:00,
2013-12-22 05:11:00,17.2,15.3,30.00,NNW,342,0.0,0.0,92,0.00,,---,0.00,VWS V15.00,2013-12-22 11:11:00,
2013-12-22 05:16:00,17.3,15.4,30.00,NNW,342,0.0,0.0,92,0.00,,---,0.00,VWS V15.00,2013-12-22 11:16:00,
2013-12-22 05:21:00,17.4,15.5,30.00,NNW,342,0.0,0.0,92,0.00,,---,0.00,VWS V15.00,2013-12-22 11:21:00,
2013-12-22 05:31:00,17.9,16.0,30.00,NNW,342,0.0,0.0,92,0.00,,---,0.00,VWS V15.00,2013-12-22 11:31:00,
2013-12-22 05:36:00,18.0,16.1,30.00,NNW,342,0.0,0.0,92,0.00,,---,0.00,VWS V15.00,2013-12-22 11:36:00,
2013-12-22 05:41:00,18.2,16.3,30.00,NNW,342,0.0,0.0,92,0.00,,---,0.00,VWS V15.00,2013-12-22 11:41:00,
2013-12-22 05:46:00,18.1,16.2,30.00,NNW,342,0.0,0.0,92,0.00,,---,0.00,VWS V15.00,2013-12-22 11:46:00,
2013-12-22 05:56:00,18.2,16.3,30.00,NNW,342,0.0,0.0,92,0.00,,---,0.00,VWS V15.00,2013-12-22 11:56:00,
2013-12-22 06:01:00,18.4,16.5,30.00,NNW,342,0.0,0.0,92,0.00,,---,0.00,VWS V15.00,2013-12-22 12:01:00,
2013-12-22 06:06:00,18.5,16.6,30.00,NNW,342,0.0,0.0,92,0.00,,---,0.00,VWS V15.00,2013-12-22 12:06:00,
2013-12-22 06:11:00,18.5,16.8,30.00,NNW,342,0.0,0.0,93,0.00,,---,0.00,VWS V15.00,2013-12-22 12:11:00,
2013-12-22 06:16:00,18.6,16.9,30.00,NNW,342,0.0,0.0,93,0.00,,---,0.00,VWS V15.00,2013-12-22 12:16:00,
2013-12-22 06:21:00,18.7,17.0,30.01,NNW,342,0.0,0.0,93,0.00,,---,0.00,VWS V15.00,2013-12-22 12:21:00,
2013-12-22 06:31:00,19.1,17.4,30.01,NNW,344,0.0,0.0,93,0.00,,---,0.00,VWS V15.00,2013-12-22 12:31:00,
2013-12-22 06:36:00,19.5,17.8,30.01,NNW,344,0.0,0.0,93,0.00,,---,0.00,VWS V15.00,2013-12-22 12:36:00,
2013-12-22 06:46:00,20.0,18.3,30.01,ESE,104,0.0,2.0,93,0.00,,---,0.00,VWS V15.00,2013-12-22 12:46:00,
2013-12-22 06:51:00,20.0,18.3,30.01,East,101,0.0,2.0,93,0.00,,---,0.00,VWS V15.00,2013-12-22 12:51:00,
2013-12-22 06:56:00,20.0,18.3,30.01,East,92,0.0,0.0,93,0.00,,---,0.00,VWS V15.00,2013-12-22 12:56:00,
2013-12-22 07:06:00,20.1,18.4,30.01,East,93,0.0,0.0,93,0.00,,---,0.00,VWS V15.00,2013-12-22 13:06:00,
2013-12-22 07:11:00,20.1,18.4,30.01,East,92,0.0,0.0,93,0.00,,---,0.00,VWS V15.00,2013-12-22 13:11:00,
2013-12-22 07:21:00,20.0,18.3,30.01,East,92,0.0,0.0,93,0.00,,---,0.00,VWS V15.00,2013-12-22 13:21:00,
2013-12-22 07:26:00,20.0,18.3,30.01,East,91,0.0,0.0,93,0.00,,---,0.00,VWS V15.00,2013-12-22 13:26:00,
2013-12-22 07:31:00,20.0,18.3,30.01,East,91,0.0,0.0,93,0.00,,---,0.00,VWS V15.00,2013-12-22 13:31:00,
2013-12-22 07:41:00,20.0,18.3,30.01,East,92,0.0,0.0,93,0.00,,---,0.00,VWS V15.00,2013-12-22 13:41:00,
2013-12-22 07:46:00,20.1,18.4,30.01,East,92,0.0,0.0,93,0.00,,---,0.00,VWS V15.00,2013-12-22 13:46:00,
2013-12-22 07:51:00,20.1,18.4,30.01,East,91,0.0,0.0,93,0.00,,---,0.00,VWS V15.00,2013-12-22 13:51:00,
2013-12-22 07:56:00,20.2,18.5,30.01,East,92,0.0,0.0,93,0.00,,---,0.00,VWS V15.00,2013-12-22 13:56:00,
2013-12-22 08:06:00,20.4,18.7,30.01,East,91,0.0,0.0,93,0.00,,---,0.00,VWS V15.00,2013-12-22 14:06:00,
2013-12-22 08:11:00,20.5,18.8,30.01,East,91,0.0,0.0,93,0.00,,---,0.00,VWS V15.00,2013-12-22 14:11:00,
2013-12-22 08:21:00,20.8,19.1,30.01,East,92,0.0,0.0,93,0.00,,---,0.00,VWS V15.00,2013-12-22 14:21:00,
2013-12-22 08:31:00,21.2,19.5,30.01,East,91,0.0,0.0,93,0.00,,---,0.00,VWS V15.00,2013-12-22 14:31:00,
2013-12-22 08:36:00,21.1,19.4,30.01,WNW,284,0.0,4.0,93,0.00,,---,0.00,VWS V15.00,2013-12-22 14:36:00,
2013-12-22 08:41:00,20.9,19.2,30.02,WNW,284,0.0,3.0,93,0.00,,---,0.00,VWS V15.00,2013-12-22 14:41:00,
2013-12-22 08:51:00,20.4,18.7,30.01,West,281,1.0,5.0,93,0.00,,---,0.00,VWS V15.00,2013-12-22 14:51:00,
2013-12-22 08:56:00,20.2,18.5,30.02,West,281,0.0,2.0,93,0.00,,---,0.00,VWS V15.00,2013-12-22 14:56:00,
2013-12-22 09:06:00,20.2,18.5,30.02,West,281,0.0,0.0,93,0.00,,---,0.00,VWS V15.00,2013-12-22 15:06:00,
2013-12-22 09:16:00,20.2,18.5,30.01,West,281,0.0,1.0,93,0.00,,---,0.00,VWS V15.00,2013-12-22 15:16:00,
2013-12-22 09:21:00,20.4,18.7,30.02,West,281,0.0,1.0,93,0.00,,---,0.00,VWS V15.00,2013-12-22 15:21:00,
2013-12-22 09:26:00,20.5,18.8,30.01,West,281,2.0,2.0,93,0.00,,---,0.00,VWS V15.00,2013-12-22 15:26:00,
2013-12-22 09:31:00,20.5,18.8,30.01,West,281,1.0,3.0,93,0.00,,---,0.00,VWS V15.00,2013-12-22 15:31:00,
2013-12-22 09:36:00,20.6,18.9,30.01,West,281,1.0,3.0,93,0.00,,---,0.00,VWS V15.00,2013-12-22 15:36:00,
2013-12-22 09:41:00,20.5,18.8,30.01,West,281,3.0,4.0,93,0.00,,---,0.00,VWS V15.00,2013-12-22 15:41:00,
2013-12-22 09:51:00,20.6,18.9,30.01,West,281,0.0,4.0,93,0.00,,---,0.00,VWS V15.00,2013-12-22 15:51:00,
2013-12-22 09:56:00,20.7,19.0,30.01,West,281,1.0,2.0,93,0.00,,---,0.00,VWS V15.00,2013-12-22 15:56:00,
2013-12-22 10:01:00,20.7,19.0,30.02,West,281,0.0,3.0,93,0.00,,---,0.00,VWS V15.00,2013-12-22 16:01:00,
2013-12-22 10:06:00,20.8,18.9,30.02,West,281,0.0,4.0,92,0.00,,---,0.00,VWS V15.00,2013-12-22 16:06:00,
2013-12-22 10:11:00,20.8,18.9,30.02,West,281,2.0,4.0,92,0.00,,---,0.00,VWS V15.00,2013-12-22 16:11:00,
2013-12-22 10:21:00,20.9,19.2,30.02,West,281,2.0,4.0,93,0.00,,---,0.00,VWS V15.00,2013-12-22 16:21:00,
2013-12-22 10:31:00,21.1,19.4,30.03,West,281,0.0,0.0,93,0.00,,---,0.00,VWS V15.00,2013-12-22 16:31:00,
2013-12-22 10:41:00,21.2,19.5,30.03,West,281,0.0,0.0,93,0.00,,---,0.00,VWS V15.00,2013-12-22 16:41:00,
2013-12-22 10:46:00,21.4,19.7,30.03,West,281,0.0,2.0,93,0.00,,---,0.00,VWS V15.00,2013-12-22 16:46:00,
2013-12-22 10:51:00,21.5,19.8,30.03,West,281,0.0,0.0,93,0.00,,---,0.00,VWS V15.00,2013-12-22 16:51:00,
2013-12-22 10:56:00,21.7,20.0,30.03,West,281,0.0,0.0,93,0.00,,---,0.00,VWS V15.00,2013-12-22 16:56:00,
2013-12-22 11:01:00,22.0,20.3,30.03,West,281,0.0,0.0,93,0.00,,---,0.00,VWS V15.00,2013-12-22 17:01:00,
2013-12-22 11:06:00,22.1,20.4,30.03,West,281,0.0,0.0,93,0.00,,---,0.00,VWS V15.00,2013-12-22 17:06:00,
2013-12-22 11:11:00,22.3,20.6,30.02,West,281,0.0,0.0,93,0.00,,---,0.00,VWS V15.00,2013-12-22 17:11:00,
2013-12-22 11:16:00,22.4,20.7,30.02,West,281,0.0,0.0,93,0.00,,---,0.00,VWS V15.00,2013-12-22 17:16:00,
2013-12-22 11:26:00,23.0,21.3,30.02,West,281,0.0,0.0,93,0.00,,---,0.00,VWS V15.00,2013-12-22 17:26:00,
2013-12-22 11:31:00,23.4,21.7,30.02,West,281,0.0,0.0,93,0.00,,---,0.00,VWS V15.00,2013-12-22 17:31:00,
2013-12-22 11:36:00,23.7,22.0,30.02,West,281,0.0,0.0,93,0.00,,---,0.00,VWS V15.00,2013-12-22 17:36:00,
2013-12-22 11:41:00,23.7,22.0,30.02,West,281,0.0,3.0,93,0.00,,---,0.00,VWS V15.00,2013-12-22 17:41:00,
2013-12-22 11:51:00,23.9,21.9,30.01,West,281,0.0,0.0,92,0.00,,---,0.00,VWS V15.00,2013-12-22 17:51:00,
2013-12-22 11:56:00,24.1,22.1,30.02,West,281,0.0,0.0,92,0.00,,---,0.00,VWS V15.00,2013-12-22 17:56:00,
2013-12-22 12:06:00,24.2,22.2,30.02,West,281,0.0,0.0,92,0.00,,---,0.00,VWS V15.00,2013-12-22 18:06:00,
2013-12-22 12:11:00,24.3,22.3,30.01,West,281,0.0,0.0,92,0.00,,---,0.00,VWS V15.00,2013-12-22 18:11:00,
2013-12-22 12:21:00,24.2,22.2,30.01,West,281,1.0,2.0,92,0.00,,---,0.00,VWS V15.00,2013-12-22 18:21:00,
2013-12-22 12:26:00,24.0,22.0,30.01,NNE,21,0.0,1.0,92,0.00,,---,0.00,VWS V15.00,2013-12-22 18:26:00,
2013-12-22 12:31:00,23.7,21.5,30.01,NE,45,2.0,4.0,91,0.00,,---,0.00,VWS V15.00,2013-12-22 18:31:00,
2013-12-22 12:41:00,23.7,21.5,30.01,NE,44,0.0,1.0,91,0.00,,---,0.00,VWS V15.00,2013-12-22 18:41:00,
2013-12-22 12:46:00,23.6,21.4,30.01,NE,44,0.0,0.0,91,0.00,,---,0.00,VWS V15.00,2013-12-22 18:46:00,
2013-12-22 12:51:00,23.5,21.3,30.01,NE,43,0.0,3.0,91,0.00,,---,0.00,VWS V15.00,2013-12-22 18:51:00,
2013-12-22 12:56:00,23.5,21.3,30.01,NNE,17,0.0,3.0,91,0.00,,---,0.00,VWS V15.00,2013-12-22 18:56:00,
2013-12-22 13:06:00,23.5,21.3,30.01,NNE,17,0.0,1.0,91,0.00,,---,0.00,VWS V15.00,2013-12-22 19:06:00,
2013-12-22 13:11:00,23.5,21.3,30.01,NE,56,0.0,3.0,91,0.00,,---,0.00,VWS V15.00,2013-12-22 19:11:00,
2013-12-22 13:16:00,23.4,21.2,30.01,NE,43,0.0,0.0,91,0.00,,---,0.00,VWS V15.00,2013-12-22 19:16:00,
2013-12-22 13:21:00,23.4,20.9,30.01,NE,38,0.0,2.0,90,0.00,,---,0.00,VWS V15.00,2013-12-22 19:21:00,
2013-12-22 13:26:00,23.4,20.9,30.01,ENE,78,0.0,0.0,90,0.00,,---,0.00,VWS V15.00,2013-12-22 19:26:00,
2013-12-22 13:36:00,23.6,21.4,30.02,ENE,78,0.0,0.0,91,0.00,,---,0.00,VWS V15.00,2013-12-22 19:36:00,
2013-12-22 13:41:00,23.5,21.3,30.02,East,79,0.0,0.0,91,0.00,,---,0.00,VWS V15.00,2013-12-22 19:41:00,
2013-12-22 13:46:00,23.5,21.3,30.02,NE,36,0.0,3.0,91,0.00,,---,0.00,VWS V15.00,2013-12-22 19:46:00,
2013-12-22 13:51:00,23.4,21.2,30.02,NE,42,0.0,2.0,91,0.00,,---,0.00,VWS V15.00,2013-12-22 19:51:00,
2013-12-22 13:56:00,23.3,21.1,30.02,East,82,0.0,4.0,91,0.00,,---,0.00,VWS V15.00,2013-12-22 19:56:00,
2013-12-22 14:01:00,23.3,21.1,30.02,East,82,0.0,0.0,91,0.00,,---,0.00,VWS V15.00,2013-12-22 20:01:00,
2013-12-22 14:11:00,23.2,21.0,30.03,NNE,17,0.0,3.0,91,0.00,,---,0.00,VWS V15.00,2013-12-22 20:11:00,
2013-12-22 14:21:00,23.1,20.9,30.03,NNE,17,0.0,0.0,91,0.00,,---,0.00,VWS V15.00,2013-12-22 20:21:00,
2013-12-22 14:26:00,23.0,20.8,30.03,NNE,17,0.0,0.0,91,0.00,,---,0.00,VWS V15.00,2013-12-22 20:26:00,
2013-12-22 14:31:00,23.0,20.8,30.03,NNE,17,0.0,0.0,91,0.00,,---,0.00,VWS V15.00,2013-12-22 20:31:00,
2013-12-22 14:36:00,23.1,20.9,30.04,NNE,17,0.0,0.0,91,0.00,,---,0.00,VWS V15.00,2013-12-22 20:36:00,
2013-12-22 14:41:00,23.2,21.0,30.04,NNE,17,0.0,0.0,91,0.00,,---,0.00,VWS V15.00,2013-12-22 20:41:00,
2013-12-22 14:46:00,23.2,21.0,30.04,NNE,17,0.0,0.0,91,0.00,,---,0.00,VWS V15.00,2013-12-22 20:46:00,
2013-12-22 14:51:00,23.2,21.0,30.04,NNE,17,0.0,0.0,91,0.00,,---,0.00,VWS V15.00,2013-12-22 20:51:00,
2013-12-22 14:56:00,23.1,20.9,30.04,NNE,17,0.0,0.0,91,0.00,,---,0.00,VWS V15.00,2013-12-22 20:56:00,
2013-12-22 15:01:00,22.9,20.7,30.04,NNE,15,0.0,0.0,91,0.00,,---,0.00,VWS V15.00,2013-12-22 21:01:00,
2013-12-22 15:06:00,22.7,20.5,30.04,NNE,16,0.0,0.0,91,0.00,,---,0.00,VWS V15.00,2013-12-22 21:06:00,
2013-12-22 15:11:00,22.6,20.4,30.05,NNE,16,0.0,0.0,91,0.00,,---,0.00,VWS V15.00,2013-12-22 21:11:00,
2013-12-22 15:16:00,22.5,20.3,30.05,NNE,16,0.0,0.0,91,0.00,,---,0.00,VWS V15.00,2013-12-22 21:16:00,
2013-12-22 15:21:00,22.5,20.3,30.06,ENE,76,0.0,4.0,91,0.00,,---,0.00,VWS V15.00,2013-12-22 21:21:00,
2013-12-22 15:26:00,22.4,20.2,30.06,ENE,77,0.0,0.0,91,0.00,,---,0.00,VWS V15.00,2013-12-22 21:26:00,
2013-12-22 15:31:00,22.4,20.2,30.06,ENE,70,0.0,0.0,91,0.00,,---,0.00,VWS V15.00,2013-12-22 21:31:00,
2013-12-22 15:36:00,22.4,20.2,30.06,ENE,69,0.0,0.0,91,0.00,,---,0.00,VWS V15.00,2013-12-22 21:36:00,
2013-12-22 15:41:00,22.3,20.1,30.07,ENE,69,0.0,0.0,91,0.00,,---,0.00,VWS V15.00,2013-12-22 21:41:00,
2013-12-22 15:46:00,22.3,20.1,30.07,ENE,70,0.0,0.0,91,0.00,,---,0.00,VWS V15.00,2013-12-22 21:46:00,
2013-12-22 15:51:00,22.2,20.0,30.07,ENE,70,0.0,0.0,91,0.00,,---,0.00,VWS V15.00,2013-12-22 21:51:00,
2013-12-22 15:56:00,22.1,19.9,30.07,ENE,70,0.0,0.0,91,0.00,,---,0.00,VWS V15.00,2013-12-22 21:56:00,
2013-12-22 16:01:00,22.1,19.9,30.07,ENE,70,0.0,0.0,91,0.00,,---,0.00,VWS V15.00,2013-12-22 22:01:00,
2013-12-22 16:06:00,22.0,19.8,30.07,ENE,70,0.0,0.0,91,0.00,,---,0.00,VWS V15.00,2013-12-22 22:06:00,
2013-12-22 16:11:00,22.0,20.0,30.08,ENE,70,0.0,1.0,92,0.00,,---,0.00,VWS V15.00,2013-12-22 22:11:00,
2013-12-22 16:16:00,21.9,19.9,30.08,ENE,69,0.0,0.0,92,0.00,,---,0.00,VWS V15.00,2013-12-22 22:16:00,
2013-12-22 16:21:00,21.8,19.8,30.08,ENE,70,0.0,0.0,92,0.00,,---,0.00,VWS V15.00,2013-12-22 22:21:00,
2013-12-22 16:26:00,21.7,19.7,30.08,ENE,70,0.0,0.0,92,0.00,,---,0.00,VWS V15.00,2013-12-22 22:26:00,
2013-12-22 16:31:00,21.7,19.7,30.08,ENE,69,0.0,0.0,92,0.00,,---,0.00,VWS V15.00,2013-12-22 22:31:00,
2013-12-22 16:36:00,21.7,19.7,30.09,ENE,69,0.0,0.0,92,0.00,,---,0.00,VWS V15.00,2013-12-22 22:36:00,
2013-12-22 16:41:00,21.6,19.6,30.09,ENE,70,0.0,0.0,92,0.00,,---,0.00,VWS V15.00,2013-12-22 22:41:00,
2013-12-22 16:46:00,21.6,19.6,30.09,ENE,70,0.0,0.0,92,0.00,,---,0.00,VWS V15.00,2013-12-22 22:46:00,
2013-12-22 16:51:00,21.6,19.6,30.09,ENE,69,0.0,0.0,92,0.00,,---,0.00,VWS V15.00,2013-12-22 22:51:00,
2013-12-22 17:01:00,21.4,19.4,30.10,ENE,70,0.0,0.0,92,0.00,,---,0.00,VWS V15.00,2013-12-22 23:01:00,
2013-12-22 17:06:00,21.3,19.3,30.10,ENE,69,0.0,0.0,92,0.00,,---,0.00,VWS V15.00,2013-12-22 23:06:00,
2013-12-22 17:16:00,21.1,19.1,30.10,ENE,69,0.0,0.0,92,0.00,,---,0.00,VWS V15.00,2013-12-22 23:16:00,
2013-12-22 17:21:00,21.0,19.0,30.10,ENE,70,0.0,0.0,92,0.00,,---,0.00,VWS V15.00,2013-12-22 23:21:00,
2013-12-22 17:26:00,20.9,19.0,30.10,ENE,69,0.0,0.0,92,0.00,,---,0.00,VWS V15.00,2013-12-22 23:26:00,
2013-12-22 17:36:00,20.6,18.6,30.11,ENE,70,0.0,0.0,92,0.00,,---,0.00,VWS V15.00,2013-12-22 23:36:00,
2013-12-22 17:46:00,20.3,18.4,30.11,ENE,69,0.0,0.0,92,0.00,,---,0.00,VWS V15.00,2013-12-22 23:46:00,
2013-12-22 17:51:00,20.1,18.1,30.11,ENE,70,0.0,0.0,92,0.00,,---,0.00,VWS V15.00,2013-12-22 23:51:00,
2013-12-22 17:56:00,20.0,18.0,30.11,ENE,70,0.0,0.0,92,0.00,,---,0.00,VWS V15.00,2013-12-22 23:56:00,
2013-12-22 18:01:00,19.9,18.0,30.11,ENE,70,0.0,0.0,92,0.00,,---,0.00,VWS V15.00,2013-12-23 00:01:00,
2013-12-22 18:06:00,19.8,17.9,30.11,ENE,69,0.0,0.0,92,0.00,,---,0.00,VWS V15.00,2013-12-23 00:06:00,
2013-12-22 18:16:00,19.7,17.8,30.12,ENE,70,0.0,0.0,92,0.00,,---,0.00,VWS V15.00,2013-12-23 00:16:00,
2013-12-22 18:21:00,19.5,17.6,30.12,ENE,70,0.0,0.0,92,0.00,,---,0.00,VWS V15.00,2013-12-23 00:21:00,
2013-12-22 18:26:00,19.3,17.4,30.12,ENE,70,0.0,0.0,92,0.00,,---,0.00,VWS V15.00,2013-12-23 00:26:00,
2013-12-22 18:31:00,19.2,17.3,30.12,ENE,70,0.0,0.0,92,0.00,,---,0.00,VWS V15.00,2013-12-23 00:31:00,
2013-12-22 18:41:00,19.1,17.2,30.12,ENE,70,0.0,0.0,92,0.00,,---,0.00,VWS V15.00,2013-12-23 00:41:00,
2013-12-22 18:46:00,19.1,17.4,30.12,ENE,69,0.0,0.0,93,0.00,,---,0.00,VWS V15.00,2013-12-23 00:46:00,
2013-12-22 18:51:00,19.0,17.1,30.12,ENE,70,0.0,0.0,92,0.00,,---,0.00,VWS V15.00,2013-12-23 00:51:00,
2013-12-22 18:56:00,18.7,16.8,30.12,ENE,70,0.0,0.0,92,0.00,,---,0.00,VWS V15.00,2013-12-23 00:56:00,
2013-12-22 19:01:00,18.6,16.7,30.12,ENE,70,0.0,0.0,92,0.00,,---,0.00,VWS V15.00,2013-12-23 01:01:00,
2013-12-22 19:11:00,18.5,16.8,30.12,ENE,70,0.0,0.0,93,0.00,,---,0.00,VWS V15.00,2013-12-23 01:11:00,
2013-12-22 19:16:00,18.4,16.5,30.12,ENE,70,0.0,0.0,92,0.00,,---,0.00,VWS V15.00,2013-12-23 01:16:00,
2013-12-22 19:21:00,18.3,16.4,30.13,ENE,69,0.0,0.0,92,0.00,,---,0.00,VWS V15.00,2013-12-23 01:21:00,
2013-12-22 19:31:00,18.1,16.4,30.13,ENE,70,0.0,0.0,93,0.00,,---,0.00,VWS V15.00,2013-12-23 01:31:00,
2013-12-22 19:41:00,17.9,16.0,30.13,ENE,69,0.0,0.0,92,0.00,,---,0.00,VWS V15.00,2013-12-23 01:41:00,
2013-12-22 19:51:00,17.9,16.0,30.13,ENE,70,0.0,0.0,92,0.00,,---,0.00,VWS V15.00,2013-12-23 01:51:00,
2013-12-22 19:56:00,18.0,16.1,30.13,ENE,69,0.0,2.0,92,0.00,,---,0.00,VWS V15.00,2013-12-23 01:56:00,
2013-12-22 20:01:00,17.9,16.0,30.14,ENE,70,0.0,0.0,92,0.00,,---,0.00,VWS V15.00,2013-12-23 02:01:00,
2013-12-22 20:06:00,17.9,16.0,30.13,ENE,70,0.0,0.0,92,0.00,,---,0.00,VWS V15.00,2013-12-23 02:06:00,
2013-12-22 20:11:00,17.8,15.9,30.14,ENE,70,0.0,0.0,92,0.00,,---,0.00,VWS V15.00,2013-12-23 02:11:00,
2013-12-22 20:16:00,17.7,15.8,30.14,ENE,69,0.0,1.0,92,0.00,,---,0.00,VWS V15.00,2013-12-23 02:16:00,
2013-12-22 20:21:00,17.5,15.6,30.14,ENE,69,0.0,0.0,92,0.00,,---,0.00,VWS V15.00,2013-12-23 02:21:00,
2013-12-22 20:26:00,17.5,15.6,30.14,ENE,70,0.0,0.0,92,0.00,,---,0.00,VWS V15.00,2013-12-23 02:26:00,
2013-12-22 20:31:00,17.3,15.4,30.14,ENE,69,0.0,0.0,92,0.00,,---,0.00,VWS V15.00,2013-12-23 02:31:00,
2013-12-22 20:36:00,17.1,15.2,30.14,ENE,69,0.0,0.0,92,0.00,,---,0.00,VWS V15.00,2013-12-23 02:36:00,
2013-12-22 20:41:00,16.9,15.0,30.14,ENE,70,0.0,0.0,92,0.00,,---,0.00,VWS V15.00,2013-12-23 02:41:00,
2013-12-22 20:51:00,16.8,14.9,30.14,ENE,70,1.0,2.0,92,0.00,,---,0.00,VWS V15.00,2013-12-23 02:51:00,
2013-12-22 20:56:00,17.0,15.1,30.15,ENE,69,0.0,1.0,92,0.00,,---,0.00,VWS V15.00,2013-12-23 02:56:00,
2013-12-22 21:01:00,16.9,14.7,30.15,ENE,70,0.0,0.0,91,0.00,,---,0.00,VWS V15.00,2013-12-23 03:01:00,
2013-12-22 21:06:00,16.4,14.2,30.15,ENE,69,0.0,0.0,91,0.00,,---,0.00,VWS V15.00,2013-12-23 03:06:00,
2013-12-22 21:11:00,15.9,13.7,30.15,ENE,69,0.0,0.0,91,0.00,,---,0.00,VWS V15.00,2013-12-23 03:11:00,
2013-12-22 21:16:00,15.4,13.2,30.15,ENE,69,0.0,0.0,91,0.00,,---,0.00,VWS V15.00,2013-12-23 03:16:00,
2013-12-22 21:21:00,15.1,12.9,30.15,ENE,70,0.0,0.0,91,0.00,,---,0.00,VWS V15.00,2013-12-23 03:21:00,
2013-12-22 21:26:00,14.8,12.6,30.15,ENE,70,0.0,0.0,91,0.00,,---,0.00,VWS V15.00,2013-12-23 03:26:00,
2013-12-22 21:31:00,14.6,12.5,30.15,ENE,69,0.0,0.0,91,0.00,,---,0.00,VWS V15.00,2013-12-23 03:31:00,
2013-12-22 21:36:00,14.5,12.4,30.15,ENE,70,0.0,0.0,91,0.00,,---,0.00,VWS V15.00,2013-12-23 03:36:00,
2013-12-22 21:46:00,14.3,12.2,30.16,ENE,70,0.0,0.0,91,0.00,,---,0.00,VWS V15.00,2013-12-23 03:46:00,
2013-12-22 21:51:00,14.2,12.1,30.16,ENE,69,0.0,0.0,91,0.00,,---,0.00,VWS V15.00,2013-12-23 03:51:00,
2013-12-22 21:56:00,14.2,12.1,30.16,ENE,70,0.0,0.0,91,0.00,,---,0.00,VWS V15.00,2013-12-23 03:56:00,
2013-12-22 22:01:00,14.1,12.0,30.16,ENE,70,0.0,0.0,91,0.00,,---,0.00,VWS V15.00,2013-12-23 04:01:00,
2013-12-22 22:11:00,14.0,11.9,30.16,ENE,70,0.0,0.0,91,0.00,,---,0.00,VWS V15.00,2013-12-23 04:11:00,
2013-12-22 22:16:00,13.9,11.8,30.16,ENE,70,0.0,0.0,91,0.00,,---,0.00,VWS V15.00,2013-12-23 04:16:00,
2013-12-22 22:21:00,13.9,11.8,30.16,ENE,70,0.0,0.0,91,0.00,,---,0.00,VWS V15.00,2013-12-23 04:21:00,
2013-12-22 22:26:00,14.0,14.0,30.16,ENE,70,0.0,0.0,100,0.00,,---,0.00,VWS V15.00,2013-12-23 04:26:00,
2013-12-22 22:31:00,14.3,12.2,30.16,ENE,69,0.0,0.0,91,0.00,,---,0.00,VWS V15.00,2013-12-23 04:31:00,
2013-12-22 22:36:00,14.8,12.9,30.16,ENE,70,0.0,0.0,92,0.00,,---,0.00,VWS V15.00,2013-12-23 04:36:00,
2013-12-22 22:41:00,15.2,13.3,30.16,ENE,70,0.0,0.0,92,0.00,,---,0.00,VWS V15.00,2013-12-23 04:41:00,
2013-12-22 22:51:00,15.3,13.1,30.16,ENE,69,0.0,0.0,91,0.00,,---,0.00,VWS V15.00,2013-12-23 04:51:00,
2013-12-22 22:56:00,15.3,13.1,30.17,ENE,70,0.0,0.0,91,0.00,,---,0.00,VWS V15.00,2013-12-23 04:56:00,
2013-12-22 23:01:00,15.4,13.2,30.17,ENE,70,0.0,0.0,91,0.00,,---,0.00,VWS V15.00,2013-12-23 05:01:00,
2013-12-22 23:06:00,15.4,13.2,30.17,ENE,69,0.0,0.0,91,0.00,,---,0.00,VWS V15.00,2013-12-23 05:06:00,
2013-12-22 23:11:00,15.7,13.8,30.17,ENE,70,0.0,0.0,92,0.00,,---,0.00,VWS V15.00,2013-12-23 05:11:00,
2013-12-22 23:16:00,15.9,14.0,30.17,ENE,70,0.0,0.0,92,0.00,,---,0.00,VWS V15.00,2013-12-23 05:16:00,
2013-12-22 23:21:00,16.0,13.8,30.17,ENE,69,0.0,0.0,91,0.00,,---,0.00,VWS V15.00,2013-12-23 05:21:00,
2013-12-22 23:26:00,16.1,13.9,30.17,ENE,69,0.0,0.0,91,0.00,,---,0.00,VWS V15.00,2013-12-23 05:26:00,
2013-12-22 23:31:00,16.3,14.4,30.17,ENE,69,0.0,3.0,92,0.00,,---,0.00,VWS V15.00,2013-12-23 05:31:00,
2013-12-22 23:36:00,16.4,14.2,30.17,ENE,69,0.0,0.0,91,0.00,,---,0.00,VWS V15.00,2013-12-23 05:36:00,
2013-12-22 23:41:00,16.4,14.2,30.17,ENE,68,0.0,0.0,91,0.00,,---,0.00,VWS V15.00,2013-12-23 05:41:00,
2013-12-22 23:46:00,16.4,14.2,30.17,ENE,68,0.0,0.0,91,0.00,,---,0.00,VWS V15.00,2013-12-23 05:46:00,
2013-12-22 23:51:00,16.4,14.2,30.18,ENE,69,0.0,1.0,91,0.00,,---,0.00,VWS V15.00,2013-12-23 05:51:00,
2013-12-22 23:56:00,16.3,14.1,30.18,ENE,69,0.0,0.0,91,0.00,,---,0.00,VWS V15.00,2013-12-23 05:56:00,